Погода Новая Ладога

Погода Новая Ладога : погода сейчас, прогноз погоды и архив. Всё, что Вы хотите узнать о погоде Новая Ладога!

Хотите узнать прогноз погоды Новая Ладога? Тогда Вам сюда: Погода Новая Ладога

Поиск расширенной информации на нашем сайте:

Другие новости

Новости СМИ2

Главная страница сайта

Новости сайта

03.07.2017

Напоминаем, что на нашем специализированном сайте Метеоцентр.Азия вы можете получить высокодетализированные автоматические прогнозы погоды по пунктам России, СНГ и мира в авиационном формате (включающие направление и скорость ветра, видимость, явления погоды, количество и форму облачности, нижнюю и верхнюю границу облачности).


Погода Новая Ладога - сегодня

Время (UTC), дата Ветер
(°,м/с) 
Видим.   Явления Облачность Т
(°С)
Тd
(°С)
f(%) Тe
(°С)
Pmin
(гПа)
dP
(гПа)
Po
(мм)
O2
(г/м3)
Тmin Tmax R s Состояние
почвы
00 15.04.18 190 (Ю) 20000 м    ясно 
+4 -3.3 59 +4  1021.6  -0.9  765  304           
06 15.04.18 тихо ()   20000 м    ясно 
+9 -1.2 49 +9  1020.6  765  298  +0.9         
09 15.04.18 360 (С) 20000 м    ясно 
+12.3 -0.3 42 +14  1020.8  0.1  765  295           
12 15.04.18 030 (СВ) 20000 м    1/0 верхняя 
[Ci fib]
+9.2 -1.8 46 +9  1020.6  -0.2  765  298           
15 15.04.18 000 (С) 90  0100 м    1/1 1000 м 
-1.8   1019.8  -0.8  764             
18 15.04.18 тихо ()   20000 м    ясно 
+2.9 -0 81 +3  1019.6  -0.2  764  305    +12.5       
21 15.04.18 280 (З) 20000 м    ясно 
-0.1 -1.2 92 +1  1019.2  -0.4  764  308           
00 16.04.18 190 (Ю) 20000 м    ясно 
-0.6 -1.5 94 1018.8  -0.4  763  308           
03 16.04.18 тихо ()   20000 м    5/0 средняя, верхняя 
[Ac lent|Ci fib]
-0.9 -1.6 95 -1  1017.7  -1  762  308  -1.4         
09 16.04.18 340 (С) 20000 м    8/3 1000 м средняя, верхняя 
[Cu med, cong|Ac cuf|Ci sp]
+11.6 +1.8 51 +13  1017.3  -0.2  762  294           
12 16.04.18 360 (С) 20000 м    9/1 1000 м средняя, верхняя 
[Cu med, cong|Ac lent|Ci sp]
+7.2 +0.3 61 +7  1017.7  0.4  762  299           
00 17.04.18 тихо ()   20000 м    10/0 средняя 
[Ac und]
+4.6 +1.5 80 +5  1016.2  0.1  761  301           
09 17.04.18 160 (Ю) 20000 м    10/10 900 м 
[Sc]
+15.2 +8.5 64 +15  1013.5  -0.7  759  288           
03 18.04.18 050 (СВ) 10 км  слаб. дождь  10/10 240 м 
[Frnb|Ns]
+4.9 +4.8 99 +4  1009.3  0.3  756  299  +4.9    17     
09 18.04.18 020 (С) 20000 м  {дождь}  9/3 1000 м средняя 
[Sc|Ac lent]
+5.6 +3.4 86 +5  1012.7  1.6  759  299           
15 18.04.18 340 (С) 20000 м    9/0 средняя 
[Ac As]
+6.6 +1.4 69 +6  1014.6  0.6  760  299         
21 18.04.18 300 (СЗ) 20000 м    3/0 верхняя 
[Ci fib]
+1.6 +0.1 90 +1  1015.4  0.1  761  305           
00 19.04.18 310 (СЗ) 20000 м    ясно 
+0.5 -0.5 93 +1  1014.9  -0.5  760  306           
09 19.04.18 340 (С) 20000 м    3/0 верхняя 
[Ci fib]
+6.6 +2.5 75 +5  1016.6  1.3  762  299           
12 19.04.18 310 (СЗ) 20000 м    1/0 верхняя 
[Ci fib]
+9.6 +0.4 53 +9  1017.2  0.6  762  297           
15 19.04.18 320 (СЗ) 20000 м    ясно 
+8.8 +1.9 62 +8  1017.4  0.2  762  297           
21 19.04.18 310 (СЗ) 20000 м    4/0 средняя 
[Ac lent]
+5.5 +1.9 78 +4  1018.3  0.5  763  301           
00 20.04.18 330 (СЗ) 20000 м    ясно 
+2.9 +0.9 87 +4  1018.8  0.5  763  304           
09 20.04.18 200 (Ю) 20000 м    10/0 верхняя 
[Ci sp]
+10.6 +2.1 56 +11  1017.2  -1.8  762  295           
21 20.04.18 190 (Ю) 20000 м    10/0 средняя 
[Ac und]
+6.6 +5.7 94 +6  1003.6  -3.5  752  295           
Время (UTC), дата Ветер
(°,м/с) 
Видим.   Явления Облачность Т
(°С)
Тd
(°С)
f(%) Тe
(°С)
Pmin
(гПа)
dP
(гПа)
Po
(мм)
O2
(г/м3)
Тmin Tmax R s Состояние
почвы

Для получения пояснительной информации подведите курсор к названию столбца.

ПОГОДА Новая Ладога - архив

Всё, что Вы хотите узнать о погоде Новая Ладога - удобно и подробно!

Выберите нужную дату (начиная с 1 января 2015* года) и нажмите кнопку "Найти".
Будут отображены архивные сводки погоды по пункту Новая Ладога, начиная с указанной даты.


Отображать данные в формате CSV (для использования в таблицах Excel)


Внимание! Наш архив погоды предназначен исключительно для личного некоммерческого использования в познавательных целях. Если Вам необходимы официальные справки о состоянии погоды (для производственных, юридических, коммерческих и т.п. целей), обращайтесь в органы Росгидромета.

*Примечание: данная дата относится к архиву по метеостанциям СССР (Россия, СНГ, Балтия).
Архив по метеостанциям Зарубежной Европы и Азии (кроме Китая) хранится 10 дней, по другим регионам земного шара (Китай, Африка, Америка, Австралия, Океания) - 1 день.

Новая Ладога - район местоположения метеостанции


Название, широта, долгота, высота метеостанции:
Новая Ладога 60.1°ш. 32.3°д. 9 м над ур. моря [Российская Федерация]

Дополнительная информация

В oтличие oт бoльшинства пoгoдных сайтoв мы публикуем пoдрoбную метеoинфoрмацию в детальнoм прoфессиoнальнoм фoрмате.

Характеристики температуры и влажнoсти вoздуха измеряются на высoте 2 м в тени вдали oт зданий и деревьев.
Скoрoсть ветра измеряется на высoте 10 м (на урoвне рoста челoвека скoрoсть ветра ниже в 1.5-2 раза). Если метеoстанция нахoдится в гoрoде или в лесу, тo скoрoсть ветра занижена на 2-4 м/с пo сравнению с oткрытым местoм. Скoрoсть ветра над акватoриями крупных рек и oзёр, а также на вершинах хoлмoв на 2-5 м/с выше, чем в oбычных услoвиях.
Атмoсфернoе давление в разных тoчках местнoсти мoжет значительнo oтличаться oт давления на метеoстанции, в зависимoсти oт услoвий рельефа (при пoдъёме на 10 м давление пoнижается примернo на 1 мм рт.ст.).